ARIANE 5 DEB [SYLDA] (49057 NORAD) Tracking and Keplerian Element Data

This shows tracking and keplerian element data for the satellite.

Feedback or suggestion? Click here.




ElementValue
Catalog49057
NameARIANE 5 DEB [SYLDA]
Epoch Orbit65
Epoch Day240.87202957
Epoch Year2021
RAAN80.6992
Inclination3.0913
Eccentricity0.7271365
Argument of Perigee201.5904
Mean Anonmoly97.0732
Mean Motion2.28915372
Decay Rate0.00012876
L11 49057U 21069C 21240.87202957 .00012876 00000-0 43284-2 0 9999
L22 49057 3.0913 80.6992 7271365 201.5904 97.0732 2.28915372 657

Live tracking and technical data element details for ARIANE 5 DEB [SYLDA] (NORAD 49057). ARIANE 5 DEB [SYLDA] can be tracked NOW for your location showing map with azimuth and elevation plus other details from your city location.

Track the satellite on the map from your city or location and see movement details for azimuth, elevation, latitude, longitude, range, height, and movement on the map or in text.







IsCatalogInMostPopularTable: catalog: 49057, numindb: 16
Update: records affected: 1



GetName: 49057 ARIANE 5 DEB [SYLDA]

Hit Count: updated at: Sun, 17 Oct 2021 09:15:59 GMT